Weather History for YBCS - July, 2012

Change the Weather History Date:

Sunday, July 15, 2012

  Actual Average Record
Temperature  
Mean Temperature 74 °F -  
Max Temperature 79 °F 79 °F 82 °F (2010)
Min Temperature 68 °F 63 °F 53 °F (1996)
Cooling Degree Days 8    
Growing Degree Days 24 (Base 50)    
Moisture  
Dew Point 67 °F    
Average Humidity 80    
Maximum Humidity 94    
Minimum Humidity 55    
Precipitation  
Precipitation 0.01 in 0.03 in - ()
Sea Level Pressure  
Sea Level Pressure 29.98 in    
Wind  
Wind Speed 9 mph ()    
Max Wind Speed 18 mph    
Max Gust Speed -    
Visibility 6.7 miles    
Events Rain    
Averages and records for this station are not official NWS values.
T = Trace of Precipitation, MM = Missing Value Source: Averaged Metar Reports

Daily Weather History Graph

Daily Weather History Graph

Search for Another Location

Airport or City:

Trip Planner

Search our weather history database for the weather conditions in past years. The results will help you decide how hot, cold, wet, or windy it might be!

Date:

Astronomy

Jul. 15, 2012 Rise Set
Actual Time 6:46 AM AEST 5:59 PM AEST
Civil Twilight 6:23 AM AEST 6:22 PM AEST
Nautical Twilight 5:56 AM AEST 6:49 PM AEST
Astronomical Twilight 5:30 AM AEST 7:15 PM AEST
Moon 3:12 AM AEST (7/15) 2:40 PM AEST (7/15)
Length of Visible Light 11h 59m
Length of Day
11h 12m
Waning Crescent, 16% of the Moon is Illuminated
Jul 15
Waning Crescent
Jul 19
New
Jul 26
First Quarter
Aug 2
Full
Aug 10
Last Quarter

Hourly Weather History & Observations

Time (AEST) Temp. Dew Point Humidity Pressure Visibility Wind Dir Wind Speed Gust Speed Precip Events Conditions
12:00 AM 74 °F 71 °F 88% 29.96 in - SSE 2.3 mph - -  
12:00 AM 73.4 °F 71.6 °F 94% 29.95 in - SSE 2.3 mph - N/A   Unknown
12:30 AM 75.2 °F 71.6 °F 89% 29.95 in 6.2 mi Calm Calm - N/A   Mostly Cloudy
1:00 AM 75 °F 72 °F 86% 29.94 in - South 8.1 mph - -  
1:00 AM 75.2 °F 71.6 °F 89% 29.92 in 6.2 mi South 8.1 mph - N/A   Mostly Cloudy
1:30 AM 75.2 °F 71.6 °F 89% 29.92 in 6.2 mi South 6.9 mph - N/A   Mostly Cloudy
2:00 AM 73.4 °F 71.6 °F 94% 29.92 in 6.2 mi South 8.1 mph - N/A   Mostly Cloudy
2:30 AM 75.2 °F 71.6 °F 89% 29.92 in 6.2 mi South 8.1 mph - N/A   Mostly Cloudy
3:00 AM 74 °F 71 °F 89% 29.92 in - South 6.9 mph - -  
3:00 AM 73.4 °F 71.6 °F 94% 29.92 in 5.0 mi South 6.9 mph - N/A   Scattered Clouds
3:30 AM 75.2 °F 71.6 °F 89% 29.89 in 5.0 mi South 6.9 mph - N/A   Scattered Clouds
4:00 AM 74 °F 71 °F 88% 29.92 in - South 9.2 mph - -  
4:00 AM 73.4 °F 71.6 °F 94% 29.92 in 5.0 mi South 9.2 mph - N/A   Scattered Clouds
4:30 AM 73.4 °F 71.6 °F 94% 29.92 in 5.0 mi South 6.9 mph - N/A   Partly Cloudy
5:00 AM 73.4 °F 71.6 °F 94% 29.92 in 5.0 mi SSE 6.9 mph - N/A   Partly Cloudy
5:30 AM 73.4 °F 69.8 °F 88% 29.92 in 5.0 mi South 6.9 mph - N/A   Scattered Clouds
6:00 AM 73 °F 71 °F 90% 29.94 in 9 mi South 8.1 mph - -   Partly Cloudy
6:00 AM 73.4 °F 71.6 °F 94% 29.95 in 6.2 mi South 8.1 mph - N/A   Partly Cloudy
6:30 AM 73.4 °F 71.6 °F 94% 29.95 in 6.2 mi South 6.9 mph - N/A   Partly Cloudy
7:00 AM 73 °F 71 °F 90% 29.97 in - South 4.6 mph - -  
7:00 AM 73.4 °F 71.6 °F 94% 29.95 in 6.2 mi South 4.6 mph - N/A   Scattered Clouds
7:30 AM 75.2 °F 71.6 °F 89% 29.98 in 6.2 mi South 6.9 mph - N/A   Mostly Cloudy
8:00 AM 75.2 °F 71.6 °F 89% 29.98 in 6.2 mi South 5.8 mph - N/A   Mostly Cloudy
8:30 AM 75.2 °F 71.6 °F 89% 30.01 in 6.2 mi South 6.9 mph - N/A   Mostly Cloudy
9:00 AM 76 °F 72 °F 83% 30.01 in 9 mi SSE 8.1 mph - -   Overcast
9:00 AM 75.2 °F 71.6 °F 89% 30.01 in 6.2 mi SSE 8.1 mph - N/A   Mostly Cloudy
9:30 AM 73.4 °F 68.0 °F 83% 30.01 in 6.2 mi SE 16.1 mph - N/A   Mostly Cloudy
9:51 AM 71.6 °F 68.0 °F 88% 30.04 in 6.2 mi SE 15.0 mph - N/A Rain Light Rain Showers
10:00 AM 72 °F 68 °F 84% 30.04 in - SE 16.1 mph - -  
10:00 AM 71.6 °F 68.0 °F 88% 30.04 in 6.2 mi SE 16.1 mph - N/A   Mostly Cloudy
10:30 AM 71.6 °F 68.0 °F 88% 30.04 in 6.2 mi SSE 11.5 mph - N/A   Mostly Cloudy
11:00 AM 73.4 °F 68.0 °F 83% 30.01 in 6.2 mi SSE 15.0 mph - N/A   Mostly Cloudy
11:30 AM 77.0 °F 68.0 °F 74% 30.01 in 6.2 mi SSE 12.7 mph - N/A   Mostly Cloudy
12:00 PM 77 °F 67 °F 64% 30.01 in 16 mi SSE 15.0 mph - -   Partly Cloudy
12:00 PM 77.0 °F 66.2 °F 69% 30.01 in 6.2 mi SSE 15.0 mph - N/A   Mostly Cloudy
12:30 PM 78.8 °F 66.2 °F 65% 29.98 in 6.2 mi SSE 15.0 mph - N/A   Mostly Cloudy
1:00 PM 79 °F 66 °F 55% 29.98 in - SSE 12.7 mph - -  
1:00 PM 78.8 °F 66.2 °F 65% 29.98 in 6.2 mi SSE 12.7 mph - N/A   Scattered Clouds
1:30 PM 77.0 °F 66.2 °F 69% 29.95 in 6.2 mi SSE 17.3 mph - N/A   Mostly Cloudy
2:30 PM 77.0 °F 64.4 °F 65% 29.95 in 6.2 mi SSE 12.7 mph - N/A   Scattered Clouds
3:00 PM 77 °F 65 °F 58% 29.94 in 19 mi SSE 13.8 mph - -   Partly Cloudy
3:00 PM 77.0 °F 64.4 °F 65% 29.92 in 6.2 mi SSE 13.8 mph - N/A   Scattered Clouds
3:30 PM 77.0 °F 64.4 °F 65% 29.92 in 6.2 mi SE 16.1 mph - N/A   Scattered Clouds
4:00 PM 77 °F 65 °F 58% 29.95 in - SSE 15.0 mph - -  
4:00 PM 77.0 °F 64.4 °F 65% 29.95 in 6.2 mi SSE 15.0 mph - N/A   Scattered Clouds
4:30 PM 75.2 °F 64.4 °F 69% 29.95 in 6.2 mi SSE 17.3 mph - N/A   Mostly Cloudy
5:00 PM 75.2 °F 64.4 °F 69% 29.95 in 6.2 mi SSE 18.4 mph - N/A   Scattered Clouds
5:30 PM 75.2 °F 64.4 °F 69% 29.98 in 6.2 mi SSE 15.0 mph - N/A   Mostly Cloudy
6:00 PM 73 °F 64 °F 66% 29.99 in 12 mi SSE 15.0 mph - -   Partly Cloudy
6:00 PM 73.4 °F 64.4 °F 73% 29.98 in 6.2 mi SSE 15.0 mph - N/A   Mostly Cloudy
6:30 PM 71.6 °F 64.4 °F 78% 30.01 in 6.2 mi SSE 12.7 mph - N/A   Mostly Cloudy
7:00 PM 71 °F 64 °F 73% 30.03 in - South 10.4 mph - -  
7:00 PM 71.6 °F 64.4 °F 78% 30.01 in 6.2 mi South 10.4 mph - N/A   Light Drizzle
7:30 PM 69.8 °F 64.4 °F 83% 30.04 in 6.2 mi South 11.5 mph - N/A   Light Drizzle
8:00 PM 69.8 °F 62.6 °F 78% 30.04 in 6.2 mi South 15.0 mph - N/A   Light Drizzle
8:30 PM 68.0 °F 64.4 °F 88% 30.04 in 5.0 mi SSE 16.1 mph - N/A   Light Drizzle
9:00 PM 69 °F 63 °F 76% 30.07 in 7 mi South 12.7 mph - - Rain Light Drizzle
9:00 PM 69.8 °F 62.6 °F 78% 30.06 in 6.2 mi South 12.7 mph - N/A   Overcast
9:30 PM 69.8 °F 62.6 °F 78% 30.06 in 6.2 mi South 10.4 mph - N/A   Overcast
10:00 PM 71 °F 61 °F 63% 30.08 in - SSE 13.8 mph - -  
10:00 PM 71.6 °F 60.8 °F 69% 30.06 in 6.2 mi SSE 13.8 mph - N/A   Overcast
10:30 PM 69.8 °F 60.8 °F 73% 30.06 in 6.2 mi SSE 12.7 mph - N/A   Overcast
11:00 PM 71.6 °F 60.8 °F 69% 30.06 in 6.2 mi SSE 17.3 mph - N/A   Scattered Clouds
11:30 PM 69.8 °F 60.8 °F 73% 30.06 in 6.2 mi SSE 17.3 mph - N/A   Mostly Cloudy